Danbury, CT

2:08 AM EST on January 20, 2017 (GMT -0500)
Danbury Municipal

Weather History for KDXR - December, 2012

Change the Weather History Date:

Friday, December 14, 2012

  Actual Average Record
Temperature  
Mean Temperature 34 °F -  
Max Temperature 48 °F 41 °F 62 °F (2015)
Min Temperature 21 °F 25 °F -2 °F (2005)
Degree Days  
Heating Degree Days 30    
Moisture  
Dew Point 22 °F    
Average Humidity 71    
Maximum Humidity 92    
Minimum Humidity 34    
Precipitation  
Precipitation 0.00 in - - ()
Sea Level Pressure  
Sea Level Pressure 30.22 in    
Wind  
Wind Speed 2 mph (WSW)    
Max Wind Speed 12 mph    
Max Gust Speed -    
Visibility 9 miles    
Events      
Averages and records for this station are not official NWS values.
T = Trace of Precipitation, MM = Missing Value Source: NWS Daily Summary

Daily Weather History Graph

Daily Weather History Graph

Search for Another Location

Airport or City:

Trip Planner

Search our weather history database for the weather conditions in past years. The results will help you decide how hot, cold, wet, or windy it might be!

Date:

Astronomy

Dec. 14, 2012 Rise Set
Actual Time 7:12 AM EST 4:25 PM EST
Civil Twilight 6:41 AM EST 4:56 PM EST
Nautical Twilight 6:06 AM EST 5:31 PM EST
Astronomical Twilight 5:32 AM EST 6:04 PM EST
Moon 8:14 AM EST (12/14) 6:15 PM EST (12/14)
Length of Visible Light 10h 15m
Length of Day
9h 12m
Waxing Crescent, 3% of the Moon is Illuminated
Dec 14
Waxing Crescent
Dec 20
First Quarter
Dec 28
Full
Jan 4
Last Quarter
Jan 11
New

Hourly Weather History & Observations

Time (EST) Temp. Windchill Dew Point Humidity Pressure Visibility Wind Dir Wind Speed Gust Speed Precip Events Conditions
1:53 AM 23.0 °F - 19.9 °F 88% 30.31 in 7.0 mi Calm Calm - N/A   Clear
2:53 AM 23.0 °F - 19.9 °F 88% 30.30 in 8.0 mi Calm Calm - N/A   Clear
3:53 AM 21.9 °F - 19.0 °F 89% 30.28 in 7.0 mi Calm Calm - N/A   Clear
4:53 AM 21.9 °F - 19.0 °F 89% 30.27 in 8.0 mi Calm Calm - N/A   Clear
5:53 AM 21.0 °F - 18.0 °F 88% 30.27 in 8.0 mi Calm Calm - N/A   Clear
6:53 AM 21.0 °F - 19.0 °F 92% 30.27 in 7.0 mi Calm Calm - N/A   Clear
7:53 AM 21.9 °F - 18.0 °F 85% 30.26 in 5.0 mi Calm Calm - N/A   Clear
8:53 AM 34.0 °F 28.0 °F 25.0 °F 70% 30.26 in 8.0 mi WSW 6.9 mph - N/A   Clear
9:53 AM 37.9 °F 32.1 °F 24.1 °F 57% 30.24 in 9.0 mi WSW 8.1 mph - N/A   Clear
10:53 AM 39.9 °F 33.4 °F 25.0 °F 55% 30.22 in 10.0 mi WSW 10.4 mph - N/A   Clear
11:53 AM 42.1 °F 36.6 °F 25.0 °F 51% 30.18 in 10.0 mi WSW 9.2 mph - N/A   Clear
12:53 PM 45.0 °F 39.3 °F 24.1 °F 44% 30.16 in 10.0 mi WSW 11.5 mph - N/A   Clear
1:53 PM 46.0 °F 41.0 °F 23.0 °F 40% 30.14 in 10.0 mi West 10.4 mph - N/A   Clear
2:53 PM 48.0 °F - 21.0 °F 34% 30.14 in 10.0 mi West 5.8 mph - N/A   Clear
3:53 PM 46.0 °F 43.9 °F 19.9 °F 35% 30.16 in 10.0 mi WNW 4.6 mph - N/A   Clear
4:53 PM 37.9 °F - 23.0 °F 55% 30.17 in 10.0 mi Calm Calm - N/A   Clear
5:53 PM 33.1 °F - 24.1 °F 70% 30.18 in 10.0 mi Calm Calm - N/A   Clear
6:53 PM 30.0 °F - 24.1 °F 79% 30.20 in 10.0 mi Calm Calm - N/A   Clear
7:53 PM 28.9 °F - 24.1 °F 82% 30.22 in 10.0 mi Calm Calm - N/A   Clear
8:53 PM 27.0 °F 23.0 °F 23.0 °F 85% 30.23 in 10.0 mi WSW 3.5 mph - N/A   Clear
9:53 PM 28.9 °F - 24.1 °F 82% 30.22 in 10.0 mi Calm Calm - N/A   Clear
10:53 PM 26.1 °F - 23.0 °F 88% 30.23 in 9.0 mi Calm Calm - N/A   Clear
11:53 PM 26.1 °F - 23.0 °F 88% 30.24 in 9.0 mi Calm Calm - N/A   Clear